Meath Environmental Platform

Observations for Trim Patrick St

Time AQI Temp °C Hum % Pres Pa CO μg/m³ H₂S μg/m³ NO μg/m³ NO₂ μg/m³ O₃ μg/m³ SO₂ μg/m³ PM1 μg/m³ PM2.5 μg/m³ PM10 μg/m³
Monday 3 August 2026
17:34 4 26.5 37 69,067 0 14.88 0.95 20.98 120.67 10.47 3.71 9.63 10.6
17:33 4 26.5 36 69,059 0 15.01 0.98 21.21 136.33 9.76 2.86 9.67 10.64
17:32 4 26.6 36 69,053 0 14.16 1 20.67 119.27 9.66 3.71 9.67 10.64
17:30 4 26.7 36 69,069 0 14.39 0.95 20.64 155.09 10.83 3.71 10.49 11.54
16:27 3 28.4 32 69,161 0 2.02 1.19 14.72 141.13 10.03 3.71 9.96 10.96
16:26 3 28.4 31 69,177 0 3.49 1.17 18.48 157.25 11.11 4.57 10.8 11.88
16:25 3 28.4 30 69,189 0 0 1.22 18.29 184.08 10.15 2.86 9.29 10.21
16:24 3 28.5 31 69,183 0 0 1.22 11.72 99.01 8.52 2.86 9.25 10.17
16:23 3 28.5 30 69,171 0 0 1.26 12.97 101.48 8.59 2.86 9.27 10.19
16:22 3 28.6 30 69,183 0 0 1.25 10.2 83.79 7.63 2.86 8.49 9.34
16:21 3 28.6 30 69,197 0 0 1.25 13.33 154.71 10.54 2.86 9.27 10.2
16:20 3 28.7 31 69,189 0 0 1.23 15.14 187.56 11.41 2.86 10.05 11.05
16:19 3 28.8 32 69,175 0 0 1.27 11.78 105.09 10.49 3.71 9.95 10.94
16:18 3 28.8 32 69,157 0 0 1.24 14.05 125.6 10.55 2.86 9.16 10.08
16:17 3 28.9 32 69,167 0 0 1.23 16.11 132.63 9.67 3.71 9.98 10.98
16:16 3 29 32 69,175 0 0 1.27 12.23 91.23 10.51 2.86 9.92 10.91
16:15 3 29 32 69,185 0 0 1.22 18.52 161.61 11.43 2.86 9.14 10.06
16:14 3 29.1 33 69,197 0 0 1.26 12.4 119.19 11.14 2.86 9.1 10.01
16:13 3 29.1 30 69,185 0 0 1.18 17.36 180.34 10.96 3.71 10.06 11.07
16:12 3 29.2 33 69,197 0 0 1.32 10 90.98 11.99 2.86 9.88 10.86